Starlink 33553

operational
NORAD ID: 62108 Int'l Des: 2024-220 Owner: SPXS Country: US Constellation: starlink
LEOCIRCULAR

About Starlink 33553

Description loading...

Live Position

Loading 3D Globe...

Upcoming Passes

Altitude History

Altitude vs Time

uPlot chart will show altitude changes over time

Two-Line Element Set

1 62108U 24220W 26036.33827710 .00035746 00000-0 13028-2 0 9996
2 62108 42.9997 28.2306 0000763 300.3895 59.6882 15.27566212 68249
Epoch: Feb 5, 2026 • Age: 19 hours

Current Status

Altitude 485.1 km
Velocity 7.63 km/s
Sub-Earth Point 36.00°N, 35.54°W
Launch Date Nov 25, 2024
Age 1.1 years
Type internet

Technical Details

Classification Payload
Mass 530.00 kg
Dry Mass 500.00 kg
Total Mass 530.00 kg
Length 0.30 m
Diameter 4.10 m
Span 29.00 m
Shape Box + pan
Manufacturer SPXS
Bus Type Starlink V2MO
Phase Status In Orbit
Owner/State SPXS/US

Large Constellations

Loading constellations...